Location: Drayton Valley
(53.2170°N, 114.9830°W)
Time: 03:22:03
(UTC-06:00)

OTV 5 (USA 277) - Visible Passes

Search period start: 23 April 2018 00:00
Search period end: 03 May 2018 00:00
Orbit: 310 x 323 km, 54.5° (Epoch: 21 April)

Date Brightness Start Highest point End Pass type
(mag) Time Alt. Az. Time Alt. Az. Time Alt. Az.
23 Apr ? 22:28:17 10° W 22:31:00 66° N 22:33:09 15° ENE visible
24 Apr ? 00:02:42 10° WNW 00:04:00 25° WNW 00:04:00 25° WNW visible
24 Apr ? 22:42:47 10° W 22:45:29 62° N 22:47:02 22° ENE visible
25 Apr ? 00:17:09 10° WNW 00:17:54 17° W 00:17:54 17° W visible
25 Apr ? 22:57:15 10° WNW 23:00:00 73° NNE 23:00:52 37° E visible
26 Apr ? 00:31:40 10° W 00:31:44 10° W 00:31:44 10° W visible
26 Apr ? 21:37:19 10° W 21:40:02 63° N 21:42:43 10° E visible
26 Apr ? 23:11:43 10° WNW 23:14:26 80° SSW 23:14:40 69° SE visible
27 Apr ? 21:51:49 10° WNW 21:54:32 66° N 21:57:13 10° E visible
27 Apr ? 23:26:11 10° WNW 23:28:28 43° SW 23:28:28 43° SW visible
28 Apr ? 22:06:16 10° WNW 22:09:00 84° NNE 22:11:23 13° ESE visible
28 Apr ? 23:40:47 10° W 23:42:15 21° WSW 23:42:15 21° WSW visible
29 Apr ? 22:20:44 10° WNW 22:23:26 63° SSW 22:25:11 19° ESE visible
29 Apr ? 23:55:48 10° WSW 23:56:03 11° WSW 23:56:03 11° WSW visible
30 Apr ? 22:35:14 10° W 22:37:46 35° SSW 22:39:00 22° SSE visible
01 May ? 22:49:58 10° W 22:52:01 19° SW 22:52:50 17° SSW visible
